#timestamp,LO_Frequency,Hit,StdDev 
1515027615.2,286046999.1,N
1515027635.9,286046998.4,N
1515027655.7,286047002.6,N
1515027675.5,286047003.2,N
1515027695.4,286047006.1,N
1515027715.2,286047006.3,N
1515027735.0,286047010.1,N
1515027735.9,286047010.1,N
1515027755.8,286047006.1,N
1515027775.6,286047008.8,N
1515027795.4,286047007.9,N
1515027815.3,286047006.5,N
1515027835.1,286047007.6,N
1515027836.0,286047007.6,N
1515027855.8,286047004.2,N
1515027875.7,286047001.4,N
1515027895.5,286047001.4,N
1515027915.3,286047001.0,N
1515027935.1,286047002.7,N
1515027955.9,286047005.5,N
1515027975.7,286047003.1,N
1515027995.5,286047004.3,N
1515028015.4,286047000.0,N
1515028035.2,286047000.2,N
1515028055.0,286047002.3,N
1515028055.9,286047002.3,N
1515028075.8,286047003.1,N
1515028095.6,286047002.8,N
1515028115.4,286047001.9,N
1515028135.3,286047000.9,N
1515028155.1,286047000.5,N
1515028156.0,286047000.5,N
1515028175.8,286047001.0,N
1515028195.7,286046999.9,N
1515028215.5,286046997.9,N
1515028235.3,286046995.6,N
1515028255.2,286046992.3,N
1515028275.9,286046991.1,N
1515028295.7,286046990.9,N
1515028315.5,286046988.9,N
1515028335.4,286046991.2,N
1515028355.2,286046994.2,N
1515028375.0,286046994.4,N
1515028375.9,286046994.4,N
1515028395.8,286046991.7,N
1515028415.6,286046992.0,N
1515028435.4,286046994.3,N
1515028455.3,286046996.3,N
1515028475.1,286046996.9,N
1515028495.8,286046999.1,N
1515028515.7,286046999.6,N
1515028535.5,286046995.2,N
1515028555.3,286046996.0,N
1515028575.2,286046996.8,N
1515028595.9,286046996.5,N
1515028615.7,286047004.1,N
1515028635.6,286047008.8,N
1515028655.4,286047004.6,N
1515028675.2,286047004.5,N
1515028695.0,286047003.0,N
1515028696.0,286047003.0,N
1515028715.8,286047007.4,N
1515028735.6,286047005.5,N
1515028755.4,286047006.3,N
1515028775.3,286047010.6,N
1515028795.1,286047011.6,N
1515028815.8,286047011.9,N
1515028835.7,286047008.8,N
1515028855.5,286047004.7,N
1515028875.3,286047005.2,N
1515028895.2,286047009.1,N
1515028915.9,286047003.4,N
1515028935.7,286047008.4,N
1515028955.6,286047009.1,N
1515028975.4,286047007.3,N
1515028995.2,286047010.6,N
1515029015.0,286047010.8,N
1515029016.0,286047010.8,N
1515029035.8,286047008.1,N
1515029055.6,286047008.8,N
1515029075.4,286047006.4,N
1515029095.3,286047007.3,N
1515029115.1,286047006.8,N
1515029135.8,286047006.6,N
1515029155.7,286047004.8,N
1515029175.5,286047002.3,N
1515029195.3,286046999.8,N
1515029215.2,286047001.5,N
1515029235.9,286047002.7,N
1515029255.7,286046998.4,N
1515029275.6,286047002.5,N
1515029295.4,286047002.4,N
1515029315.2,286047002.6,N
1515029335.0,286047004.0,N
1515029336.0,286047004.0,N
1515029355.8,286047000.0,N
1515029375.6,286046998.3,N
1515029395.4,286046997.6,N
1515029415.3,286046999.1,N
1515029435.1,286046996.6,N
1515029455.8,286047002.1,N
1515029475.7,286047002.7,N
1515029495.5,286047005.6,N
1515029515.3,286047004.8,N
1515029535.2,286047006.9,N
1515029555.9,286047006.4,N
1515029575.7,286047007.5,N
1515029595.6,286047006.7,N
1515029615.4,286047006.1,N
1515029635.2,286047013.4,Y
1515029655.1,286047007.1,P
1515029656.0,286047007.1,P
1515029675.8,286047010.3,P
1515029695.6,286047008.0,Y
1515029715.5,286047005.6,P
1515029735.3,286047007.5,P
1515029755.1,286047003.7,P
1515029775.9,286047001.8,N
1515029795.7,286047006.6,Y
1515029815.5,286047005.9,P
1515029835.4,286047006.0,P
1515029855.2,286047007.3,P
1515029875.0,286047006.1,Y
1515029875.9,286047006.1,P
1515029895.8,286047000.2,P
1515029915.6,286046999.7,N
1515029935.4,286047000.2,N
1515029955.3,286046998.5,N
1515029975.1,286047002.9,N
1515029976.0,286047002.9,N
1515029995.8,286047009.0,Y
1515030015.7,286047005.6,P
1515030035.5,286047003.3,N
1515030055.3,286047004.3,N
1515030075.2,286047003.3,N
1515030095.9,286047004.8,Y
1515030115.7,286046998.7,P
1515030135.6,286046994.2,N
1515030155.4,286046990.9,N
1515030175.2,286046991.0,N
1515030195.0,286046990.8,N
1515030196.0,286046990.8,N
1515030215.8,286046994.5,N
1515030235.6,286046994.5,N
1515030255.4,286046994.6,N
1515030275.3,286046992.8,N
1515030295.1,286046990.2,N
1515030315.8,286046989.9,N
1515030335.7,286046986.2,Y
1515030355.5,286046990.4,P
1515030375.3,286046991.4,P
1515030395.2,286046992.8,P
1515030415.9,286046985.8,Y
1515030435.7,286046990.6,P
1515030455.6,286046988.7,P
1515030475.4,286046991.1,P
1515030495.2,286046990.2,Y
1515030515.1,286047000.4,P
1515030516.0,286047000.4,N
1515030535.8,286046999.1,N
1515030555.6,286046997.4,N
1515030575.5,286046999.6,N
1515030595.3,286046992.1,N
1515030615.1,286046994.4,N
1515030635.9,286046990.3,N
1515030655.7,286046991.1,N
1515030675.5,286046990.4,N
1515030695.4,286046989.8,N
1515030715.2,286046987.1,Y
1515030735.0,286046992.9,P
1515030735.9,286046992.9,P
1515030755.8,286046988.7,P
1515030775.6,286046991.5,Y
1515030795.4,286047000.6,P
1515030815.3,286047002.1,N
1515030835.1,286047002.5,N
1515030836.0,286047002.5,N
1515030855.8,286047001.9,N
1515030875.7,286047004.2,N
1515030895.5,286047002.2,N
1515030915.3,286046999.9,N
1515030935.2,286047002.6,N
1515030955.9,286046999.4,N
1515030975.7,286046995.7,N
1515030995.5,286046994.7,N
1515031015.4,286046990.4,N
1515031035.2,286046994.6,N
1515031055.0,286046993.3,N
1515031055.9,286046993.3,N
1515031075.8,286046996.8,N
1515031095.6,286046996.5,N
1515031115.4,286046997.5,N
1515031135.3,286046997.8,N
1515031155.1,286046995.1,N
1515031156.0,286046995.1,N
1515031175.8,286046997.3,N
1515031195.7,286046999.2,N
